Wind_Speed
5 6 5 4 5 5 4 4 4 5 5 5 5 6 6 6 6 6 6 6 6 6 6 6 7 7 7 8 8 8 9 9 9 10 10 10 10 10 10 11 11 11 10
6 6 5 5 5 5 5 5 5 5 6 6 6 6 7 7 7 8 7 7 7 6 6 7 7 7 8 8 8 9 9 10 11 11 11 10 10 11 11 11 11 11 11
7 6 6 6 6 6 6 6 6 6 6 6 6 6 7 8 8 8 8 8 8 7 7 8 8 8 8 8 9 9 10 11 11 12 11 11 11 12 12 12 12 12 12
7 7 7 7 7 6 6 7 6 7 7 7 7 7 7 8 9 9 9 9 8 9 8 8 8 8 9 9 9 9 10 11 11 11 11 11 12 13 13 13 13 12 12
8 8 8 7 7 7 7 8 8 8 8 8 8 8 9 8 9 10 10 10 10 10 10 9 9 9 9 10 10 10 10 11 11 11 11 11 12 12 13 13 13 12 11
9 9 8 8 8 8 8 9 9 9 9 9 9 9 9 9 10 11 11 11 11 11 11 10 10 10 10 10 10 10 11 11 11 11 11 11 12 12 13 13 12 11 12
9 9 10 9 9 9 9 9 10 10 10 10 10 10 10 10 11 11 11 11 11 11 11 11 11 11 11 11 10 10 11 11 12 12 11 11 11 12 12 12 11 11 11
10 10 10 9 10 10 10 10 11 11 11 11 11 12 12 11 11 12 12 11 12 12 12 11 11 11 11 11 11 10 10 11 12 12 11 11 11 12 11 11 11 10 11
11 12 11 10 11 10 11 11 12 12 12 12 12 12 12 12 11 11 12 12 12 12 12 12 12 12 11 11 11 10 11 12 12 11 11 11 12 12 12 11 11 11 10
11 12 12 11 11 12 12 12 13 13 13 13 13 13 13 13 12 12 12 12 13 13 13 13 13 12 12 12 12 11 12 12 12 11 11 12 12 12 12 12 10 10 10
12 12 12 12 12 13 13 13 13 13 13 14 14 13 13 13 13 13 13 13 13 13 14 14 13 13 12 12 12 12 12 12 12 11 12 12 12 12 12 11 11 10 10
13 13 13 13 14 14 14 14 14 14 14 14 14 13 13 13 14 14 14 14 13 14 14 14 13 13 13 13 13 12 12 12 11 12 12 11 11 10 10 10 10 10 11
15 15 14 14 15 16 16 16 15 15 15 15 14 14 14 14 13 14 14 14 15 15 14 14 14 13 13 13 12 12 11 11 11 11 11 10 9 9 9 10 10 10 10
17 17 17 16 16 16 16 16 15 15 15 15 15 15 14 14 14 14 14 15 15 15 15 15 14 14 13 13 13 12 11 11 11 11 11 10 9 9 10 9 10 10 9
18 18 19 19 19 18 17 16 16 16 16 16 16 15 15 14 15 15 15 15 15 15 15 15 15 14 14 14 14 13 13 12 12 12 11 11 10 10 10 10 10 10 9
19 20 21 21 21 20 19 18 18 17 17 17 17 17 16 16 16 15 15 16 16 16 16 16 16 16 15 15 15 15 14 14 13 13 12 11 11 11 11 10 10 10 10
21 22 22 22 22 22 21 21 20 19 19 19 19 19 19 18 17 17 16 16 16 16 17 17 17 17 17 17 16 16 15 15 14 13 13 12 12 12 11 11 11 11 11
23 22 23 23 23 23 22 22 21 21 21 21 21 21 20 19 19 18 18 18 17 17 18 18 18 18 18 18 17 17 17 15 15 15 14 14 14 13 13 12 12 12 12
23 23 24 23 23 23 22 22 22 23 22 22 22 21 21 20 20 19 19 19 19 18 18 18 19 19 19 19 19 18 18 17 16 16 15 15 15 14 14 13 13 13 12
24 24 24 25 25 25 24 23 23 23 22 22 22 21 21 21 21 21 21 20 19 19 20 19 20 20 20 20 19 18 18 17 17 17 17 16 17 16 15 15 15 14 14
26 24 25 26 26 26 26 25 24 23 23 23 23 22 22 22 22 22 21 21 20 20 20 20 20 20 20 19 19 19 18 18 18 18 18 18 17 17 16 16 16 16 16
27 26 25 26 27 26 26 25 24 24 24 24 24 24 23 23 23 23 22 22 22 21 20 20 20 20 20 20 20 20 20 20 20 19 19 18 18 18 17 17 17 17 17
28 27 25 25 26 26 25 25 24 24 24 24 23 23 23 23 24 24 24 24 23 22 22 21 21 21 21 21 21 21 21 21 20 20 20 20 19 19 18 18 18 19 18
29 28 28 28 27 26 26 26 25 24 24 24 24 24 24 24 24 24 25 25 24 24 24 24 23 23 22 22 22 22 21 21 21 22 22 21 21 20 20 20 20 20 20
29 29 29 29 28 27 27 28 26 25 25 25 25 24 24 25 25 25 26 26 26 26 26 26 25 25 24 24 23 23 23 23 23 23 23 22 22 22 22 22 22 22 22
29 29 29 29 28 28 28 28 27 26 26 26 26 26 25 25 25 26 27 27 27 27 27 27 27 26 26 25 25 25 25 25 25 25 24 24 23 23 23 23 24 24 24
Wind_Direction
282 281 276 274 279 287 282 275 271 266 262 255 255 257 259 264 266 265 269 271 276 275 271 276 277 278 275 274 274 272 272 275 276 275 273 274 271 269 271 274 275 273 269
278 281 277 282 282 286 286 283 274 271 264 262 259 260 262 266 268 266 267 271 275 276 272 276 276 276 273 273 278 276 274 274 274 275 274 274 271 267 269 271 273 272 266
276 279 280 284 282 279 279 281 269 268 264 261 263 266 265 261 266 266 268 267 271 276 277 276 277 278 277 278 281 280 277 276 276 277 276 276 274 269 267 271 272 272 269
273 274 279 285 284 276 271 270 264 264 265 262 266 266 266 263 265 265 267 266 269 273 276 280 279 279 279 281 282 281 278 279 281 278 277 276 276 273 272 268 269 270 270
269 270 276 281 284 279 274 269 264 265 266 267 271 271 268 268 264 264 266 266 266 269 272 276 276 277 280 282 284 284 280 280 282 280 279 280 280 278 277 275 273 269 269
267 267 274 277 279 280 277 274 271 271 269 269 272 274 271 271 268 264 263 267 267 266 268 272 271 273 277 281 285 285 285 280 279 278 278 282 282 281 281 281 276 272 270
266 268 273 275 278 279 277 277 275 273 270 270 274 275 276 273 270 267 265 267 268 266 266 268 268 270 272 276 282 285 283 282 280 277 277 281 283 283 284 283 280 276 271
270 267 271 275 277 280 281 278 277 275 271 271 273 276 274 271 271 266 265 268 269 267 265 265 268 270 272 273 276 279 281 281 279 278 279 278 282 284 287 287 284 283 281
271 272 269 273 281 283 281 277 278 278 277 274 273 276 273 270 270 268 265 265 269 268 265 266 267 267 271 273 273 273 278 283 286 283 281 281 283 284 285 288 288 287 281
272 275 273 275 278 281 281 280 281 280 277 275 275 275 275 272 268 267 265 264 266 267 266 266 264 265 270 271 272 273 278 280 285 286 284 284 283 285 286 288 289 288 281
271 278 278 277 278 281 282 281 280 279 277 276 275 275 275 273 268 266 265 264 265 266 268 268 267 265 267 269 272 273 275 275 279 281 279 279 280 284 286 284 287 286 280
272 276 281 279 279 282 283 282 277 274 275 275 272 273 274 272 269 267 266 266 266 267 269 270 271 270 270 271 269 272 274 276 279 279 279 279 282 286 285 288 289 288 282
273 273 277 280 282 283 283 281 277 274 274 273 271 271 272 273 272 269 268 267 268 268 269 269 269 269 271 274 274 275 274 276 278 280 280 281 284 286 289 290 291 293 285
271 274 275 277 282 283 282 279 275 273 271 271 270 270 270 271 271 271 267 266 268 268 268 268 267 266 266 270 271 272 273 274 276 279 279 280 284 285 290 293 297 295 286
272 271 274 276 278 279 280 276 272 271 269 268 268 269 270 270 269 271 269 268 265 266 267 267 267 266 265 265 266 269 270 274 275 278 279 279 283 284 287 289 294 293 287
274 271 271 273 274 275 276 274 272 271 268 267 268 269 269 270 271 270 269 267 265 264 265 265 265 265 264 265 264 265 269 271 272 276 277 277 280 282 283 284 288 288 282
274 275 273 272 270 271 273 273 274 272 270 268 267 269 269 269 268 268 267 268 267 266 265 264 264 265 265 264 264 265 267 270 270 271 272 273 277 280 282 283 284 284 283
272 273 273 271 270 270 271 270 271 271 270 269 269 269 269 268 267 266 266 266 267 267 266 264 263 264 264 264 264 265 265 267 267 268 271 271 273 276 277 280 281 281 280
273 274 272 271 271 270 271 269 271 269 267 267 268 268 267 267 266 266 266 266 266 267 267 265 262 262 262 264 264 263 263 263 264 266 268 268 269 272 274 275 276 278 278
272 273 271 270 268 268 270 270 273 269 267 266 266 267 265 264 264 265 266 266 266 267 266 265 264 261 260 261 262 262 261 262 262 264 267 266 267 268 270 272 274 276 278
270 272 271 268 266 267 270 269 269 267 267 266 264 265 265 263 263 264 265 266 266 266 266 265 264 261 259 259 260 261 262 261 262 263 267 267 267 267 269 271 274 276 276
268 271 271 267 266 268 269 269 266 265 267 266 264 264 265 264 264 264 265 266 266 265 265 266 266 262 260 259 259 259 261 263 263 261 263 265 267 268 268 269 272 275 274
266 267 267 267 269 269 268 267 267 266 265 266 266 267 268 268 267 266 264 264 264 264 263 265 265 263 261 260 259 260 261 262 262 260 260 263 265 267 268 269 272 275 277
265 266 267 269 269 268 268 268 266 265 265 265 266 267 269 268 268 266 264 263 262 262 261 263 264 262 261 261 261 261 261 260 262 261 260 262 264 267 268 269 272 274 276
266 266 267 268 267 266 268 267 265 265 265 267 268 268 270 268 266 265 264 263 262 262 261 263 264 261 260 261 261 261 261 262 262 262 262 262 264 266 268 269 271 272 273
268 268 267 266 267 266 266 264 264 264 264 267 268 269 269 268 266 266 264 264 263 262 260 261 264 262 259 258 259 260 261 262 262 262 263 263 263 265 267 270 272 272 273
Height
5883 5883 5882 5882 5882 5881 5881 5881 5881 5880 5881 5880 5880 5880 5880 5880 5879 5879 5879 5879 5879 5878 5878 5877 5877 5876 5876 5876 5875 5875 5875 5875 5874 5874 5874 5874 5873 5873 5873 5873 5872 5872 5872
5881 5881 5881 5881 5880 5880 5879 5879 5880 5880 5880 5879 5879 5879 5879 5878 5878 5878 5878 5877 5877 5877 5877 5876 5876 5875 5875 5874 5874 5873 5873 5873 5872 5872 5872 5871 5871 5871 5871 5870 5870 5869 5869
5880 5880 5880 5880 5879 5879 5878 5878 5878 5878 5878 5878 5878 5877 5877 5877 5876 5876 5876 5876 5876 5876 5875 5875 5874 5874 5873 5872 5872 5872 5871 5871 5871 5870 5870 5869 5869 5868 5868 5868 5867 5867 5866
5878 5878 5878 5878 5877 5877 5877 5877 5877 5877 5877 5876 5876 5876 5876 5875 5875 5875 5875 5875 5874 5874 5874 5873 5873 5872 5872 5871 5870 5870 5869 5869 5869 5868 5868 5867 5866 5866 5865 5865 5865 5864 5864
5876 5876 5876 5876 5876 5875 5875 5875 5875 5875 5875 5874 5874 5874 5873 5873 5873 5873 5873 5873 5872 5872 5872 5871 5871 5870 5870 5869 5869 5868 5867 5867 5866 5866 5865 5865 5864 5863 5863 5862 5861 5861 5860
5874 5874 5874 5874 5873 5873 5873 5873 5873 5873 5872 5872 5872 5871 5871 5871 5871 5871 5871 5870 5870 5870 5869 5869 5869 5868 5868 5868 5867 5866 5865 5865 5864 5864 5863 5862 5862 5861 5860 5859 5858 5858 5858
5872 5872 5871 5871 5871 5871 5871 5871 5870 5870 5870 5869 5869 5869 5869 5868 5868 5868 5868 5868 5868 5867 5867 5867 5867 5866 5866 5865 5865 5864 5863 5862 5862 5861 5860 5859 5859 5858 5857 5856 5856 5855 5855
5870 5869 5869 5869 5869 5868 5868 5868 5868 5868 5867 5867 5867 5866 5866 5867 5866 5865 5865 5865 5865 5865 5865 5865 5864 5864 5863 5863 5862 5861 5861 5860 5859 5859 5858 5857 5856 5856 5855 5854 5853 5852 5852
5867 5867 5866 5866 5866 5866 5865 5865 5865 5865 5864 5864 5864 5863 5863 5863 5863 5863 5862 5862 5862 5862 5862 5862 5861 5861 5861 5860 5860 5859 5859 5858 5857 5856 5855 5854 5854 5853 5852 5851 5850 5849 5849
5864 5864 5864 5863 5863 5863 5862 5862 5862 5861 5861 5861 5860 5860 5860 5859 5859 5860 5860 5859 5859 5859 5859 5859 5858 5858 5858 5858 5857 5856 5856 5855 5854 5853 5853 5852 5851 5851 5850 5849 5848 5847 5846
5861 5861 5860 5860 5860 5860 5859 5858 5858 5858 5858 5857 5857 5857 5857 5856 5856 5856 5856 5856 5856 5856 5856 5855 5855 5855 5855 5855 5854 5853 5853 5852 5852 5851 5850 5850 5849 5848 5847 5846 5845 5844 5843
5858 5858 5857 5857 5857 5856 5856 5855 5855 5854 5854 5854 5854 5854 5853 5853 5852 5852 5852 5852 5852 5852 5852 5852 5852 5852 5852 5851 5851 5850 5850 5850 5849 5849 5848 5847 5847 5846 5845 5843 5842 5841 5839
5855 5854 5854 5854 5853 5853 5852 5852 5851 5851 5851 5850 5850 5850 5850 5849 5849 5849 5849 5849 5849 5849 5849 5849 5849 5849 5848 5848 5848 5848 5847 5847 5847 5846 5845 5845 5844 5843 5842 5841 5839 5837 5835
5851 5851 5851 5850 5850 5849 5849 5848 5848 5847 5847 5847 5847 5846 5846 5846 5845 5845 5845 5845 5845 5845 5845 5845 5845 5845 5845 5845 5845 5845 5844 5844 5844 5844 5843 5842 5842 5841 5840 5838 5836 5834 5833
5847 5846 5846 5846 5845 5845 5844 5844 5844 5843 5843 5843 5842 5842 5842 5841 5841 5841 5841 5841 5841 5841 5841 5841 5841 5841 5842 5842 5841 5841 5841 5841 5841 5840 5840 5839 5839 5838 5837 5836 5835 5833 5832
5842 5842 5841 5841 5841 5840 5840 5840 5839 5839 5838 5838 5838 5838 5837 5837 5837 5837 5837 5836 5837 5837 5837 5837 5837 5837 5838 5838 5838 5838 5838 5837 5837 5837 5837 5837 5836 5835 5835 5834 5833 5832 5831
5837 5837 5836 5835 5835 5835 5835 5835 5834 5834 5833 5833 5833 5833 5833 5833 5832 5832 5832 5832 5832 5832 5833 5833 5833 5833 5833 5834 5833 5834 5833 5833 5834 5834 5834 5834 5833 5833 5832 5831 5830 5830 5829
5831 5831 5830 5830 5829 5829 5829 5829 5829 5828 5828 5827 5827 5827 5827 5827 5827 5827 5827 5827 5827 5828 5828 5828 5828 5828 5829 5829 5829 5829 5829 5829 5830 5830 5830 5830 5830 5830 5829 5829 5828 5827 5826
5825 5824 5824 5823 5823 5823 5823 5823 5822 5822 5822 5822 5821 5821 5821 5822 5822 5822 5822 5822 5822 5823 5823 5823 5823 5823 5824 5824 5824 5825 5825 5825 5825 5825 5826 5826 5826 5826 5826 5825 5825 5824 5823
5819 5818 5817 5817 5816 5816 5816 5816 5816 5816 5816 5816 5815 5816 5816 5816 5816 5816 5816 5816 5816 5817 5817 5817 5818 5818 5818 5819 5819 5820 5820 5821 5821 5821 5822 5822 5822 5822 5822 5822 5821 5821 5820
5813 5812 5811 5810 5810 5810 5810 5810 5810 5810 5809 5809 5809 5809 5809 5810 5810 5810 5811 5811 5811 5811 5812 5812 5812 5813 5813 5814 5814 5815 5815 5816 5816 5817 5817 5817 5818 5818 5817 5817 5817 5816 5816
5806 5805 5804 5803 5803 5803 5803 5803 5803 5803 5803 5803 5803 5803 5803 5803 5803 5804 5805 5805 5806 5806 5806 5807 5807 5807 5808 5808 5809 5809 5810 5811 5811 5812 5812 5812 5812 5812 5813 5812 5812 5811 5811
5798 5798 5798 5797 5796 5796 5796 5796 5796 5796 5796 5796 5796 5796 5796 5796 5797 5797 5798 5798 5799 5799 5800 5801 5801 5801 5802 5802 5803 5803 5804 5804 5805 5806 5806 5807 5807 5807 5807 5807 5807 5807 5806
5790 5790 5790 5790 5790 5789 5789 5789 5789 5789 5789 5789 5789 5790 5790 5790 5790 5790 5791 5791 5792 5792 5793 5794 5794 5795 5795 5796 5797 5797 5798 5798 5799 5800 5800 5801 5801 5802 5802 5802 5802 5801 5801
5781 5781 5782 5781 5781 5781 5781 5781 5781 5781 5782 5782 5782 5782 5782 5783 5783 5783 5783 5784 5784 5785 5785 5786 5787 5787 5788 5789 5790 5791 5792 5792 5793 5793 5794 5795 5795 5795 5796 5796 5795 5795 5795
5772 5772 5772 5772 5773 5773 5773 5773 5773 5774 5774 5774 5774 5774 5775 5775 5775 5775 5776 5776 5777 5777 5778 5779 5779 5780 5781 5782 5783 5784 5785 5786 5786 5787 5787 5788 5788 5788 5789 5789 5789 5788 5788